Torna al catalogo

BEIDOU 3M25

AttivoNavigazioneMEO
NORAD 61186·PAYLOAD·🇨🇳 China

Lanciato Sep 19, 2024 da Xichang Satellite Launch Center

Loading…

Prossimi Passaggi (prossime 24 ore)

TLE

AggiornatoSource: Space-Track

Epoca: Sep 14, 2026, 14:15 UTC

1 61186U 24168B   26257.59425442 -.00000061  00000-0  00000+0 0  9997
2 61186  54.3905 299.1275 0004557 289.0918  71.6668  1.86230280 13450

Traccia BEIDOU 3M25 in tempo reale con AllMySat

Download on the App Store